[[{"header":{"parameterUnit":"m.s-1","parameterCategory":1,"la1":30.2991,"la2":30.254,"lo1":-89.0895,"lo2":-89.0444,"dy":0.0017,"dx":0.0017,"nx":28,"ny":28,"refTime":"2026-01-08T03:00:00:Z","depth":0,"parameterNumber":2,"parameterNumberName":"U-component_of_WINDS"},"data":[0,0,0,0,0,0,0,0,0,0,0,0,0,0,0,0,0,0,0,0,0,0,0,0,0,0,0,0,0,0,0,0,0,0,0,0,0,0,0,0,0,0,0,0,0,0,0,0,0,0,0,0,0,0,0,0,0,0,-4.132,-4.1322,0,-4.1558,-4.1561,-4.1564,-4.1668,-4.1668,-4.1667,-4.1667,-4.19,-4.1907,-4.1913,0,0,0,0,0,0,0,0,0,0,0,0,0,-4.0942,-4.0949,-4.132,-4.1323,-4.1326,-4.1558,-4.1561,-4.1564,-4.1668,-4.1668,-4.1667,-4.1667,-4.1898,-4.1906,-4.1914,0,0,0,0,0,0,0,0,0,0,0,0,0,-4.1136,-4.0951,-4.1319,-4.1406,-4.1416,-4.1557,-4.1561,-4.1565,-4.1668,-4.1668,-4.1667,-4.1667,-4.1896,-4.1905,-4.1915,-4.1984,0,0,-4.1945,-4.1949,0,0,0,0,0,0,0,0,-4.1125,-4.1149,-4.139,-4.14,-4.1412,-4.1583,-4.1514,-4.1705,-4.1668,-4.1572,-4.1667,-4.1666,-4.1794,-4.1812,-4.1858,-4.1995,-4.2005,-4.1945,-4.1951,-4.1956,-4.1958,0,0,0,0,0,0,0,-4.1111,-4.114,-4.1414,-4.1393,-4.1407,-4.1429,-4.1456,-4.155,-4.1682,-4.158,-4.1589,-4.1616,-4.18,-4.1848,-4.1864,-4.2009,-4.1945,-4.1954,-4.196,-4.1964,-4.2213,-4.2214,0,0,0,0,0,0,-4.1085,-4.1128,-4.1406,-4.1421,-4.1264,-4.1436,-4.1466,-4.1528,-4.1682,-4.1705,-4.1616,-4.162,-4.1832,-4.1853,-4.1873,-4.1964,-4.1955,-4.1965,-4.197,-4.2212,-4.2213,-4.2214,0,0,0,0,0,0,-4.1077,-4.1109,-4.1397,-4.1277,-4.1315,-4.1443,-4.1512,-4.1533,-4.1582,-4.1709,-4.1732,-4.1642,-4.1832,-4.1859,-4.1956,-4.1974,-4.1969,-4.1978,-4.2212,-4.2213,-4.2214,-4.2147,0,0,0,0,0,0,-4.1065,-4.1105,-4.1136,-4.1277,-4.1321,-4.148,-4.1513,-4.1538,-4.16,-4.1607,-4.1739,-4.1761,-4.1834,-4.1941,-4.1966,-4.1987,-4.1986,-4.2211,-4.2212,-4.2213,-4.2148,-4.2146,-4.2144,0,0,0,0,0,-4.1052,-4.1106,-4.1137,-4.117,-4.1363,-4.148,-4.1505,-4.1592,-4.1601,-4.1631,-4.1712,-4.1756,-4.1967,-4.195,-4.1979,-4.2003,-4.221,-4.2212,-4.2213,-4.2149,-4.2146,-4.2144,0,0,0,0,0,0,-4.0961,-4.1126,-4.1163,-4.1265,-4.1358,-4.1498,-4.1539,-4.1586,-4.1676,-4.1679,-4.1778,-4.1807,-4.1895,-4.1959,-4.1937,-4.2078,-4.2092,-4.21,-4.2034,-4.2032,-4.2029,-4.2012,-4.1994,0,0,0,0,0,-4.0953,-4.1038,-4.1177,-4.1253,-4.1299,-4.141,-4.1464,-4.1523,-4.1622,-4.1661,-4.175,-4.1841,-4.1928,-4.1983,-4.207,-4.2157,-4.2187,-4.2188,-4.2185,-4.2183,-4.2188,-4.2238,-4.2239,-4.222,-4.222,-4.222,0,0,-4.0937,-4.1038,-4.1085,-4.1238,-4.1317,-4.1399,-4.1443,-4.1528,-4.1589,-4.1673,-4.1772,-4.1839,-4.1947,-4.204,-4.2085,-4.2095,-4.22,-4.2185,-4.2182,-4.2189,-4.224,-4.2241,-4.2243,-4.2221,-4.2221,-4.2221,0,0,-4.0951,-4.1037,-4.111,-4.1189,-4.1309,-4.1383,-4.1399,-4.1532,-4.1582,-4.1682,-4.1747,-4.1818,-4.1966,-4.2041,-4.2098,-4.2137,-4.218,-4.2162,-4.215,-4.2197,-4.2198,-4.22,-4.2214,-4.2217,-4.2167,-4.2166,-4.2166,0,-4.0915,-4.1047,-4.114,-4.1223,-4.1287,-4.1369,-4.1441,-4.1512,-4.1652,-4.1693,-4.1703,-4.189,-4.1969,-4.2079,-4.2089,-4.2132,-4.2153,-4.2148,-4.2191,-4.2194,-4.2197,-4.2211,-4.2216,-4.2164,-4.2164,-4.2164,-4.2164,0,-4.0996,-4.1085,-4.1129,-4.1267,-4.1335,-4.1411,-4.1513,-4.157,-4.1621,-4.1693,-4.1792,-4.1889,-4.1997,-4.2027,-4.2077,-4.2144,-4.2147,-4.2173,-4.2189,-4.2194,-4.2209,-4.2215,-4.2159,-4.216,-4.2161,-4.2162,0,0,-4.0961,-4.1149,-4.1164,-4.1227,-4.1364,-4.1433,-4.1511,-4.162,-4.1666,-4.1759,-4.1826,-4.1948,-4.1973,-4.2038,-4.2096,-4.2137,-4.2161,-4.2158,-4.2162,-4.2155,-4.2239,-4.2219,-4.2224,-4.219,-4.2192,-4.2193,-4.223,0,-4.0994,-4.1143,-4.1229,-4.1341,-4.1423,-4.15,-4.1568,-4.1658,-4.1725,-4.1802,-4.1875,-4.196,-4.1987,-4.2026,-4.207,-4.2149,-4.2179,-4.2147,-4.2251,-4.2253,-4.2222,-4.2232,-4.2211,-4.2242,-4.2236,-4.2237,-4.2238,0,-4.1053,-4.1148,-4.1269,-4.1396,-4.1434,-4.1494,-4.1599,-4.1672,-4.1773,-4.1819,-4.1891,-4.195,-4.2032,-4.2041,-4.2154,-4.213,-4.2177,-4.2221,-4.2225,-4.2238,-4.2246,-4.2245,-4.2254,-4.2258,-4.2248,-4.2247,-4.2246,0,-4.1015,-4.1172,-4.1265,-4.1316,-4.1467,-4.1507,-4.1571,-4.1673,-4.1731,-4.1822,-4.1861,-4.1958,-4.2011,-4.2083,-4.2165,-4.2164,-4.2269,-4.2286,-4.2308,-4.2306,-4.2327,-4.2325,-4.2344,-4.2356,-4.2356,-4.2356,-4.2356,0,-4.1043,-4.1113,-4.125,-4.1307,-4.1388,-4.1483,-4.1558,-4.1628,-4.1717,-4.1786,-4.1857,-4.192,-4.2024,-4.2098,-4.2162,-4.2245,-4.2268,-4.2306,-4.2322,-4.2301,-4.2296,-4.2333,-4.2333,-4.2357,-4.2357,-4.2357,-4.2357,0,-4.1014,-4.1109,-4.1216,-4.135,-4.1385,-4.1438,-4.1551,-4.1607,-4.1678,-4.1764,-4.179,-4.19,-4.1991,-4.208,-4.2201,-4.2244,-4.2326,-4.2348,-4.2293,-4.2302,-4.232,-4.2317,-4.2363,-4.2374,-4.2378,-4.2378,-4.2378,0,-4.1026,-4.1083,-4.1224,-4.1277,-4.134,-4.1424,-4.1486,-4.158,-4.164,-4.1759,-4.18,-4.1897,-4.198,-4.2121,-4.2209,-4.2302,-4.2326,-4.2336,-4.234,-4.2316,-4.2326,-4.2322,-4.2328,-4.2333,-4.2333,-4.2333,-4.2332,0,-4.1037,-4.1081,-4.1169,-4.1272,-4.1344,-4.1429,-4.1516,-4.1554,-4.1664,-4.1727,-4.1823,-4.1887,-4.2012,-4.2107,-4.221,-4.2271,-4.2319,-4.233,-4.234,-4.2319,-4.2285,-4.2303,-4.2287,-4.2329,-4.2329,-4.2329,-4.233,-4.233,-4.103,-4.1084,-4.1191,-4.1285,-4.1361,-4.1441,-4.15,-4.1579,-4.1662,-4.1773,-4.1822,-4.1918,-4.2015,-4.2159,-4.222,-4.2294,-4.2306,-4.232,-4.2324,-4.2326,-4.2321,-4.2272,-4.2312,-4.2313,-4.2313,-4.2313,-4.2313,0,-4.1044,-4.1117,-4.1203,-4.1324,-4.1397,-4.1439,-4.1536,-4.1594,-4.1679,-4.1767,-4.1848,-4.1956,-4.2048,-4.2143,-4.2239,-4.228,-4.2304,-4.2302,-4.23,-4.2314,-4.2305,-4.2287,-4.2281,-4.2281,-4.2281,-4.2281,-4.2281,-4.2281,-4.1061,-4.1154,-4.121,-4.1339,-4.1411,-4.1508,-4.156,-4.1632,-4.1704,-4.1823,-4.19,-4.1963,-4.2053,-4.2157,-4.2242,-4.2267,-4.2299,-4.229,-4.2322,-4.2312,-4.2314,-4.2316,-4.23,-4.2297,-4.2297,-4.2324,-4.2325,-4.2325]},{"header":{"parameterUnit":"m.s-1","parameterCategory":1,"la1":30.2991,"la2":30.254,"lo1":-89.0895,"lo2":-89.0444,"dy":0.0017,"dx":0.0017,"nx":28,"ny":28,"refTime":"2026-01-08T03:00:00:Z","depth":0,"parameterNumber":3,"parameterNumberName":"V-component_of_WINDS"},"data":[0,0,0,0,0,0,0,0,0,0,0,0,0,0,0,0,0,0,0,0,0,0,0,0,0,0,0,0,0,0,0,0,0,0,0,0,0,0,0,0,0,0,0,0,0,0,0,0,0,0,0,0,0,0,0,0,0,0,5.0656,5.0656,0,5.0657,5.0657,5.0657,5.0595,5.0593,5.0592,5.059,5.0589,5.059,5.0592,0,0,0,0,0,0,0,0,0,0,0,0,0,5.06,5.0601,5.0656,5.0656,5.0656,5.0657,5.0657,5.0657,5.0595,5.0593,5.0591,5.0589,5.0588,5.059,5.0592,0,0,0,0,0,0,0,0,0,0,0,0,0,5.0615,5.0601,5.0656,5.0626,5.0623,5.0657,5.0657,5.0657,5.0595,5.0593,5.0591,5.0588,5.0588,5.059,5.0592,5.0655,0,0,5.0599,5.06,0,0,0,0,0,0,0,0,5.0614,5.0617,5.063,5.0628,5.0625,5.0623,5.0636,5.0656,5.0596,5.0606,5.059,5.0587,5.0602,5.0603,5.0608,5.0655,5.0655,5.0599,5.06,5.0601,5.0602,0,0,0,0,0,0,0,5.0613,5.0616,5.0656,5.063,5.0627,5.0611,5.0611,5.064,5.0618,5.0605,5.06,5.0601,5.06,5.0606,5.0608,5.0655,5.0599,5.0601,5.0602,5.0603,5.0754,5.0757,0,0,0,0,0,0,5.0616,5.0616,5.0656,5.0656,5.0613,5.0614,5.0614,5.0626,5.0617,5.0613,5.0603,5.0598,5.0604,5.0605,5.0608,5.0682,5.0601,5.0603,5.0605,5.0751,5.0755,5.0757,0,0,0,0,0,0,5.0615,5.0621,5.0656,5.0635,5.0638,5.0618,5.0633,5.0628,5.0634,5.0616,5.0612,5.0614,5.0602,5.0604,5.0644,5.0681,5.0604,5.0606,5.0748,5.0752,5.0756,5.083,0,0,0,0,0,0,5.0614,5.0621,5.0645,5.0636,5.064,5.0694,5.0635,5.0629,5.0638,5.0632,5.0625,5.0622,5.06,5.0641,5.0646,5.0683,5.0608,5.0745,5.075,5.0755,5.0824,5.0836,5.0846,0,0,0,0,0,5.0612,5.0665,5.0646,5.0651,5.067,5.0696,5.0698,5.0673,5.0641,5.0665,5.0654,5.0622,5.0676,5.0646,5.0651,5.0689,5.0742,5.0749,5.0754,5.0819,5.0834,5.0846,0,0,0,0,0,0,5.0677,5.0663,5.0642,5.0694,5.0697,5.0685,5.0715,5.0689,5.07,5.0693,5.0661,5.066,5.0705,5.07,5.0667,5.0749,5.0703,5.0711,5.0751,5.0765,5.0775,5.0776,5.061,0,0,0,0,0,5.0698,5.0721,5.0707,5.0754,5.0756,5.0736,5.0746,5.0726,5.0728,5.0728,5.072,5.0722,5.0739,5.0751,5.0766,5.0823,5.0821,5.0851,5.0862,5.0872,5.0879,5.0909,5.0923,5.0777,5.0777,5.0777,0,0,5.074,5.0735,5.0751,5.0767,5.0766,5.0791,5.0737,5.0764,5.0782,5.0732,5.077,5.0764,5.0764,5.0813,5.0833,5.081,5.0918,5.0879,5.0887,5.0889,5.0917,5.0931,5.0943,5.0781,5.078,5.078,0,0,5.083,5.0828,5.0868,5.0869,5.087,5.0856,5.0865,5.0858,5.0853,5.089,5.0853,5.0873,5.0904,5.0906,5.0911,5.1002,5.0974,5.1008,5.1066,5.1096,5.1108,5.1118,5.1152,5.1164,5.1015,5.1015,5.1015,0,5.0882,5.0918,5.0891,5.0922,5.093,5.0887,5.0926,5.0928,5.0934,5.094,5.0914,5.0952,5.0949,5.0998,5.1021,5.1026,5.1036,5.1009,5.1108,5.1118,5.1127,5.1159,5.1172,5.1019,5.1019,5.1018,5.1018,0,5.0983,5.1009,5.104,5.1048,5.1059,5.1095,5.1072,5.1087,5.1067,5.1055,5.1094,5.1089,5.1103,5.1113,5.1092,5.1159,5.1145,5.1114,5.1067,5.1146,5.1176,5.1187,5.1025,5.1024,5.1023,5.1022,0,0,5.1114,5.1107,5.1119,5.1123,5.1121,5.114,5.1173,5.1188,5.1201,5.1206,5.1234,5.1261,5.1233,5.1239,5.1218,5.1245,5.1319,5.121,5.121,5.1232,5.1394,5.1419,5.1433,5.13,5.1302,5.1304,5.1395,0,5.1202,5.126,5.1236,5.1296,5.132,5.1279,5.1308,5.131,5.13,5.1318,5.1307,5.1328,5.1288,5.1291,5.1316,5.1305,5.1352,5.1298,5.1325,5.1327,5.1328,5.1448,5.1474,5.156,5.1406,5.1408,5.1409,0,5.1313,5.1324,5.1387,5.1382,5.1391,5.1417,5.1429,5.1447,5.1449,5.144,5.1447,5.1421,5.1453,5.1406,5.145,5.1414,5.1423,5.142,5.1423,5.1425,5.1374,5.1456,5.1587,5.1601,5.1427,5.1425,5.1424,0,5.1404,5.1434,5.1476,5.148,5.1475,5.1495,5.1494,5.1493,5.1503,5.1513,5.152,5.1533,5.1541,5.1551,5.153,5.1497,5.1577,5.1528,5.1571,5.1572,5.1591,5.159,5.1727,5.1595,5.1595,5.1595,5.1594,0,5.1505,5.1546,5.1517,5.1543,5.1587,5.1559,5.1603,5.1597,5.1597,5.162,5.1585,5.1608,5.1577,5.1597,5.158,5.162,5.1623,5.1617,5.1612,5.1621,5.1622,5.1628,5.1622,5.1598,5.1597,5.1596,5.1596,0,5.1615,5.1598,5.1641,5.1633,5.1632,5.1665,5.1658,5.1681,5.1669,5.17,5.1705,5.1686,5.1708,5.1687,5.1707,5.1695,5.1749,5.1735,5.175,5.1746,5.1791,5.1788,5.1938,5.1957,5.1811,5.1812,5.1814,0,5.1682,5.1712,5.1708,5.1722,5.1724,5.1746,5.1757,5.1731,5.1744,5.1748,5.1772,5.179,5.1804,5.1841,5.1828,5.1844,5.183,5.1882,5.1832,5.1841,5.1833,5.1833,5.1836,5.1892,5.1894,5.1896,5.1897,0,5.1803,5.1793,5.1811,5.1826,5.1841,5.1851,5.1859,5.1872,5.1845,5.1861,5.1884,5.1895,5.1916,5.1935,5.1947,5.1945,5.1917,5.1912,5.1923,5.1934,5.1942,5.194,5.1779,5.1909,5.1908,5.1907,5.1906,5.1906,5.1894,5.192,5.1922,5.1943,5.1946,5.1954,5.1977,5.1968,5.1986,5.2003,5.1986,5.2013,5.2014,5.2027,5.2029,5.205,5.2028,5.2044,5.2048,5.2053,5.206,5.1937,5.2051,5.2051,5.2051,5.205,5.205,0,5.2015,5.2014,5.2034,5.2047,5.2064,5.2036,5.2043,5.2059,5.2085,5.2088,5.2103,5.2129,5.2148,5.2138,5.2154,5.2173,5.2161,5.2178,5.2178,5.2178,5.2078,5.2068,5.2188,5.2188,5.2188,5.2188,5.2188,5.2188,5.2079,5.2122,5.2113,5.2156,5.2155,5.2183,5.219,5.2197,5.22,5.2232,5.2248,5.2241,5.2239,5.2255,5.2272,5.2268,5.2276,5.2299,5.2291,5.2198,5.2185,5.2172,5.2162,5.2301,5.2301,5.239,5.239,5.2391]}]]